[{"OBJECT_NAME":"QIANFAN-119","OBJECT_ID":"2026-075L","EPOCH":"2026-09-12T06:21:28.041696","MEAN_MOTION":13.51037209,"ECCENTRICITY":0.00021605,"INCLINATION":88.988,"RA_OF_ASC_NODE":312.1201,"ARG_OF_PERICENTER":88.1048,"MEAN_ANOMALY":272.0351,"EPHEMERIS_TYPE":0,"CLASSIFICATION_TYPE":"U","NORAD_CAT_ID":68646,"ELEMENT_SET_NO":999,"REV_AT_EPOCH":2156,"BSTAR":0.00011968729,"MEAN_MOTION_DOT":8.9e-7,"MEAN_MOTION_DDOT":0},{"OBJECT_NAME":"QIANFAN-120","OBJECT_ID":"2026-075M","EPOCH":"2026-09-12T06:39:16.536672","MEAN_MOTION":13.51019638,"ECCENTRICITY":0.00021104,"INCLINATION":88.9882,"RA_OF_ASC_NODE":312.1052,"ARG_OF_PERICENTER":87.0488,"MEAN_ANOMALY":273.0905,"EPHEMERIS_TYPE":0,"CLASSIFICATION_TYPE":"U","NORAD_CAT_ID":68647,"ELEMENT_SET_NO":999,"REV_AT_EPOCH":2157,"BSTAR":0.000097610912,"MEAN_MOTION_DOT":7.5e-7,"MEAN_MOTION_DDOT":0},{"OBJECT_NAME":"QIANFAN-121","OBJECT_ID":"2026-075N","EPOCH":"2026-09-12T05:28:22.820160","MEAN_MOTION":13.51023202,"ECCENTRICITY":0.00022599,"INCLINATION":88.9879,"RA_OF_ASC_NODE":312.1133,"ARG_OF_PERICENTER":100.4047,"MEAN_ANOMALY":259.7359,"EPHEMERIS_TYPE":0,"CLASSIFICATION_TYPE":"U","NORAD_CAT_ID":68648,"ELEMENT_SET_NO":999,"REV_AT_EPOCH":2156,"BSTAR":0.00011148692,"MEAN_MOTION_DOT":8.4e-7,"MEAN_MOTION_DDOT":0},{"OBJECT_NAME":"QIANFAN-122","OBJECT_ID":"2026-075P","EPOCH":"2026-09-12T05:16:28.934976","MEAN_MOTION":13.51026689,"ECCENTRICITY":0.00023039,"INCLINATION":88.9878,"RA_OF_ASC_NODE":312.1113,"ARG_OF_PERICENTER":90.1276,"MEAN_ANOMALY":270.0139,"EPHEMERIS_TYPE":0,"CLASSIFICATION_TYPE":"U","NORAD_CAT_ID":68649,"ELEMENT_SET_NO":999,"REV_AT_EPOCH":2155,"BSTAR":0.000098044252,"MEAN_MOTION_DOT":7.5e-7,"MEAN_MOTION_DDOT":0},{"OBJECT_NAME":"QIANFAN-123","OBJECT_ID":"2026-075Q","EPOCH":"2026-09-12T06:15:32.223168","MEAN_MOTION":13.51031902,"ECCENTRICITY":0.00023366,"INCLINATION":88.9875,"RA_OF_ASC_NODE":312.0942,"ARG_OF_PERICENTER":84.3187,"MEAN_ANOMALY":275.823,"EPHEMERIS_TYPE":0,"CLASSIFICATION_TYPE":"U","NORAD_CAT_ID":68650,"ELEMENT_SET_NO":999,"REV_AT_EPOCH":2154,"BSTAR":0.00009719595,"MEAN_MOTION_DOT":7.5e-7,"MEAN_MOTION_DDOT":0},{"OBJECT_NAME":"QIANFAN-124","OBJECT_ID":"2026-075R","EPOCH":"2026-09-12T06:51:18.788832","MEAN_MOTION":13.51026297,"ECCENTRICITY":0.00023337,"INCLINATION":88.9878,"RA_OF_ASC_NODE":312.1031,"ARG_OF_PERICENTER":88.8832,"MEAN_ANOMALY":271.2586,"EPHEMERIS_TYPE":0,"CLASSIFICATION_TYPE":"U","NORAD_CAT_ID":68651,"ELEMENT_SET_NO":999,"REV_AT_EPOCH":2157,"BSTAR":0.00010450398,"MEAN_MOTION_DOT":8e-7,"MEAN_MOTION_DDOT":0},{"OBJECT_NAME":"QIANFAN-125","OBJECT_ID":"2026-075S","EPOCH":"2026-09-12T05:22:27.416352","MEAN_MOTION":13.51023295,"ECCENTRICITY":0.00022822,"INCLINATION":88.9878,"RA_OF_ASC_NODE":312.1113,"ARG_OF_PERICENTER":99.9898,"MEAN_ANOMALY":260.151,"EPHEMERIS_TYPE":0,"CLASSIFICATION_TYPE":"U","NORAD_CAT_ID":68652,"ELEMENT_SET_NO":999,"REV_AT_EPOCH":2156,"BSTAR":0.00011008027,"MEAN_MOTION_DOT":8.3e-7,"MEAN_MOTION_DDOT":0},{"OBJECT_NAME":"QIANFAN-126","OBJECT_ID":"2026-075T","EPOCH":"2026-09-12T05:34:05.415168","MEAN_MOTION":13.51028666,"ECCENTRICITY":0.00023136,"INCLINATION":88.9882,"RA_OF_ASC_NODE":312.0796,"ARG_OF_PERICENTER":84.7705,"MEAN_ANOMALY":275.371,"EPHEMERIS_TYPE":0,"CLASSIFICATION_TYPE":"U","NORAD_CAT_ID":68653,"ELEMENT_SET_NO":999,"REV_AT_EPOCH":2158,"BSTAR":0.00011629458,"MEAN_MOTION_DOT":8.7e-7,"MEAN_MOTION_DDOT":0},{"OBJECT_NAME":"HULIANWANG DIGUI-164","OBJECT_ID":"2026-076A","EPOCH":"2026-09-12T07:25:38.252064","MEAN_MOTION":13.2440701,"ECCENTRICITY":0.00014777,"INCLINATION":86.5022,"RA_OF_ASC_NODE":14.4591,"ARG_OF_PERICENTER":113.6689,"MEAN_ANOMALY":246.46,"EPHEMERIS_TYPE":0,"CLASSIFICATION_TYPE":"U","NORAD_CAT_ID":68656,"ELEMENT_SET_NO":999,"REV_AT_EPOCH":2090,"BSTAR":-0.000035426327,"MEAN_MOTION_DOT":-1e-8,"MEAN_MOTION_DDOT":0},{"OBJECT_NAME":"HULIANWANG DIGUI-165","OBJECT_ID":"2026-076B","EPOCH":"2026-09-12T07:14:36.155040","MEAN_MOTION":13.24409785,"ECCENTRICITY":0.00012455,"INCLINATION":86.5045,"RA_OF_ASC_NODE":14.4912,"ARG_OF_PERICENTER":105.4982,"MEAN_ANOMALY":254.629,"EPHEMERIS_TYPE":0,"CLASSIFICATION_TYPE":"U","NORAD_CAT_ID":68657,"ELEMENT_SET_NO":999,"REV_AT_EPOCH":2090,"BSTAR":-0.000002730048,"MEAN_MOTION_DOT":1.3e-7,"MEAN_MOTION_DDOT":0},{"OBJECT_NAME":"HULIANWANG DIGUI-166","OBJECT_ID":"2026-076C","EPOCH":"2026-09-12T07:03:54.864864","MEAN_MOTION":13.24408417,"ECCENTRICITY":0.00012737,"INCLINATION":86.4986,"RA_OF_ASC_NODE":14.3918,"ARG_OF_PERICENTER":105.4984,"MEAN_ANOMALY":254.629,"EPHEMERIS_TYPE":0,"CLASSIFICATION_TYPE":"U","NORAD_CAT_ID":68658,"ELEMENT_SET_NO":999,"REV_AT_EPOCH":2090,"BSTAR":0.000043499957,"MEAN_MOTION_DOT":3.3e-7,"MEAN_MOTION_DDOT":0},{"OBJECT_NAME":"HULIANWANG DIGUI-167","OBJECT_ID":"2026-076D","EPOCH":"2026-09-12T06:52:48.929088","MEAN_MOTION":13.24410234,"ECCENTRICITY":0.00012771,"INCLINATION":86.504,"RA_OF_ASC_NODE":14.4784,"ARG_OF_PERICENTER":105.7532,"MEAN_ANOMALY":254.3743,"EPHEMERIS_TYPE":0,"CLASSIFICATION_TYPE":"U","NORAD_CAT_ID":68659,"ELEMENT_SET_NO":999,"REV_AT_EPOCH":2090,"BSTAR":0.000062311383,"MEAN_MOTION_DOT":4.1e-7,"MEAN_MOTION_DDOT":0},{"OBJECT_NAME":"HULIANWANG DIGUI-168","OBJECT_ID":"2026-076E","EPOCH":"2026-09-12T06:42:06.536448","MEAN_MOTION":13.24407171,"ECCENTRICITY":0.00012619,"INCLINATION":86.5021,"RA_OF_ASC_NODE":14.4438,"ARG_OF_PERICENTER":105.8248,"MEAN_ANOMALY":254.3025,"EPHEMERIS_TYPE":0,"CLASSIFICATION_TYPE":"U","NORAD_CAT_ID":68660,"ELEMENT_SET_NO":999,"REV_AT_EPOCH":2089,"BSTAR":0.000061192709,"MEAN_MOTION_DOT":4.1e-7,"MEAN_MOTION_DDOT":0},{"OBJECT_NAME":"HJS-8A","OBJECT_ID":"2026-078A","EPOCH":"2026-09-12T05:04:01.385760","MEAN_MOTION":13.2440488,"ECCENTRICITY":0.00022795,"INCLINATION":86.4953,"RA_OF_ASC_NODE":253.0832,"ARG_OF_PERICENTER":88.3853,"MEAN_ANOMALY":271.7542,"EPHEMERIS_TYPE":0,"CLASSIFICATION_TYPE":"U","NORAD_CAT_ID":68687,"ELEMENT_SET_NO":999,"REV_AT_EPOCH":2049,"BSTAR":-0.00018576966,"MEAN_MOTION_DOT":-6.5e-7,"MEAN_MOTION_DDOT":0},{"OBJECT_NAME":"CYGNUS NG-24","OBJECT_ID":"2026-079A","EPOCH":"2026-09-12T04:59:21.263136","MEAN_MOTION":15.4908657,"ECCENTRICITY":0.00049527,"INCLINATION":51.6305,"RA_OF_ASC_NODE":229.4056,"ARG_OF_PERICENTER":131.3152,"MEAN_ANOMALY":228.8264,"EPHEMERIS_TYPE":0,"CLASSIFICATION_TYPE":"U","NORAD_CAT_ID":68689,"ELEMENT_SET_NO":999,"REV_AT_EPOCH":58630,"BSTAR":0.000097728592,"MEAN_MOTION_DOT":0.00004954,"MEAN_MOTION_DDOT":0},{"OBJECT_NAME":"JILIN GAOFEN OBJECT A","OBJECT_ID":"2026-080A","EPOCH":"2026-09-12T06:53:57.214464","MEAN_MOTION":15.08759722,"ECCENTRICITY":0.00145985,"INCLINATION":97.6563,"RA_OF_ASC_NODE":330.6364,"ARG_OF_PERICENTER":131.9578,"MEAN_ANOMALY":228.2897,"EPHEMERIS_TYPE":0,"CLASSIFICATION_TYPE":"U","NORAD_CAT_ID":68691,"ELEMENT_SET_NO":999,"REV_AT_EPOCH":2279,"BSTAR":0.00025403437,"MEAN_MOTION_DOT":0.00003934,"MEAN_MOTION_DDOT":0},{"OBJECT_NAME":"JILIN GAOFEN OBJECT B","OBJECT_ID":"2026-080B","EPOCH":"2026-09-12T06:30:03.059136","MEAN_MOTION":15.08892379,"ECCENTRICITY":0.00188915,"INCLINATION":97.654,"RA_OF_ASC_NODE":330.6119,"ARG_OF_PERICENTER":113.9554,"MEAN_ANOMALY":246.3655,"EPHEMERIS_TYPE":0,"CLASSIFICATION_TYPE":"U","NORAD_CAT_ID":68692,"ELEMENT_SET_NO":999,"REV_AT_EPOCH":2279,"BSTAR":0.00021092119,"MEAN_MOTION_DOT":0.00003273,"MEAN_MOTION_DDOT":0},{"OBJECT_NAME":"JILIN GAOFEN OBJECT C","OBJECT_ID":"2026-080C","EPOCH":"2026-09-12T06:56:03.475104","MEAN_MOTION":15.08749663,"ECCENTRICITY":0.00154868,"INCLINATION":97.6546,"RA_OF_ASC_NODE":330.6026,"ARG_OF_PERICENTER":115.6659,"MEAN_ANOMALY":244.6171,"EPHEMERIS_TYPE":0,"CLASSIFICATION_TYPE":"U","NORAD_CAT_ID":68693,"ELEMENT_SET_NO":999,"REV_AT_EPOCH":2279,"BSTAR":0.0002605861,"MEAN_MOTION_DOT":0.00004038,"MEAN_MOTION_DDOT":0},{"OBJECT_NAME":"JILIN GAOFEN OBJECT D","OBJECT_ID":"2026-080D","EPOCH":"2026-09-12T06:32:24.620352","MEAN_MOTION":15.08767409,"ECCENTRICITY":0.00194579,"INCLINATION":97.6605,"RA_OF_ASC_NODE":330.735,"ARG_OF_PERICENTER":124.5769,"MEAN_ANOMALY":235.7299,"EPHEMERIS_TYPE":0,"CLASSIFICATION_TYPE":"U","NORAD_CAT_ID":68694,"ELEMENT_SET_NO":999,"REV_AT_EPOCH":2277,"BSTAR":0.00021666702,"MEAN_MOTION_DOT":0.00003353,"MEAN_MOTION_DDOT":0},{"OBJECT_NAME":"JILIN GAOFEN OBJECT E","OBJECT_ID":"2026-080E","EPOCH":"2026-09-12T06:06:44.741664","MEAN_MOTION":15.08921303,"ECCENTRICITY":0.00173408,"INCLINATION":97.6581,"RA_OF_ASC_NODE":330.7217,"ARG_OF_PERICENTER":131.3897,"MEAN_ANOMALY":228.8826,"EPHEMERIS_TYPE":0,"CLASSIFICATION_TYPE":"U","NORAD_CAT_ID":68695,"ELEMENT_SET_NO":999,"REV_AT_EPOCH":2275,"BSTAR":0.00018907535,"MEAN_MOTION_DOT":0.00002927,"MEAN_MOTION_DDOT":0},{"OBJECT_NAME":"JILIN GAOFEN OBJECT F","OBJECT_ID":"2026-080F","EPOCH":"2026-09-12T06:04:08.515776","MEAN_MOTION":15.0891756,"ECCENTRICITY":0.0015656,"INCLINATION":97.6551,"RA_OF_ASC_NODE":330.6682,"ARG_OF_PERICENTER":132.8773,"MEAN_ANOMALY":227.3773,"EPHEMERIS_TYPE":0,"CLASSIFICATION_TYPE":"U","NORAD_CAT_ID":68696,"ELEMENT_SET_NO":999,"REV_AT_EPOCH":2275,"BSTAR":0.000026854579,"MEAN_MOTION_DOT":0.0000036,"MEAN_MOTION_DDOT":0},{"OBJECT_NAME":"JILIN GAOFEN OBJECT G","OBJECT_ID":"2026-080G","EPOCH":"2026-09-12T07:19:14.026080","MEAN_MOTION":15.08882682,"ECCENTRICITY":0.00175104,"INCLINATION":97.6595,"RA_OF_ASC_NODE":330.8395,"ARG_OF_PERICENTER":132.3195,"MEAN_ANOMALY":227.9521,"EPHEMERIS_TYPE":0,"CLASSIFICATION_TYPE":"U","NORAD_CAT_ID":68697,"ELEMENT_SET_NO":999,"REV_AT_EPOCH":2276,"BSTAR":0.00024633049,"MEAN_MOTION_DOT":0.0000383,"MEAN_MOTION_DDOT":0},{"OBJECT_NAME":"JILIN GAOFEN OBJECT H","OBJECT_ID":"2026-080H","EPOCH":"2026-09-12T05:41:03.656832","MEAN_MOTION":15.0890238,"ECCENTRICITY":0.00184523,"INCLINATION":97.6584,"RA_OF_ASC_NODE":330.7524,"ARG_OF_PERICENTER":131.727,"MEAN_ANOMALY":228.5541,"EPHEMERIS_TYPE":0,"CLASSIFICATION_TYPE":"U","NORAD_CAT_ID":68698,"ELEMENT_SET_NO":999,"REV_AT_EPOCH":2275,"BSTAR":0.00025197709,"MEAN_MOTION_DOT":0.00003923,"MEAN_MOTION_DDOT":0}]